This demonstration page uses our WeatherBlox Daily Observations layout. Learn more.

Left ArrowRight Arrow

39.01783, -85.05884

Hourly Observations for July 10, 2021

Temp ( °F °C ) Dew Point ( °F °C ) Humidity (%) Winds ( mph kmh ) Pressure ( in mb ) Visibility ( mi km ) Precip ( " mm )
12:52 am 00:52 Clear 67 19.4 59 15 76 76 ENE 9 15 30.05 1018 10 16 0.00 0.00
1:52 am 01:52 Cloudy 66 18.9 59 15 78 78 E 5 7 30.04 1017 10 16 0.00 0.00
2:52 am 02:52 Mostly Cloudy 65 18.3 59 15 81 81 ESE 6 9 30.03 1017 10 16 0.00 0.00
3:52 am 03:52 Partly Cloudy 63 17.2 58 14.4 84 84 S 6 9 30.03 1017 10 16 0.00 0.00
4:52 am 04:52 Partly Cloudy 62 16.7 58 14.4 86 86 S 5 7 30.03 1017 10 16 0.00 0.00
5:52 am 05:52 Mostly Cloudy 63 17.2 58 14.4 84 84 SE 5 7 30.01 1016 10 16 0.00 0.00
6:52 am 06:52 Mostly Cloudy 64 17.8 59 15 84 84 SE 8 13 30.02 1017 10 16 0.00 0.00
7:52 am 07:52 Mostly Cloudy 66 18.9 59 15 78 78 SE 8 13 30.01 1016 10 16 0.00 0.00
8:52 am 08:52 Cloudy 68 20 60 15.6 76 76 SE 12 19 30.01 1016 10 16 0.00 0.00
9:52 am 09:52 Cloudy 69 20.6 61 16.1 76 76 ESE 7 11 30.01 1016 10 16 0.00 0.00
10:25 am 10:25 Cloudy 69 20.6 62 16.7 78 78 VRB 5 7 30.05 1017 9 14 0.00 0.00
10:29 am 10:29 Cloudy with Thunderstorms 69 20.6 62 16.7 78 78 ESE 9 15 30.02 1016 3 4 0.00 0.00
10:36 am 10:36 Cloudy with Strong Thunderstorms 67 19.4 62 16.7 84 84 E 16 26 30.00 1016 1 2 0.12 3.05
10:44 am 10:44 Cloudy with Thunderstorms 67 19.4 63 17.2 87 87 ESE 15 24 29.99 1016 3 5 0.16 4.06
10:52 am 10:52 Cloudy with Thunderstorms 67 19.4 63 17.2 87 87 SSE 12 19 30.00 1016 6 10 0.17 4.32
11:01 am 11:01 Mostly Cloudy with Light Rain 68 20 63 17.2 84 84 SE 7 11 30.01 1016 7 11 0.01 0.25
11:25 am 11:25 Cloudy with Light Rain 68 20 64 17.8 87 87 ESE 8 13 30.02 1017 10 16 0.01 0.25
11:52 am 11:52 Cloudy 69 20.6 65 18.3 87 87 E 8 13 29.99 1016 10 16 0.01 0.25
12:52 pm 12:52 Cloudy 70 21.1 65 18.3 84 84 SE 6 9 30.00 1016 10 16 0.00 0.00
1:34 pm 13:34 Mostly Cloudy 73 22.8 67 19.4 81 81 SE 8 13 29.98 1015 10 16 0.00 0.00
1:52 pm 13:52 Mostly Cloudy 73 22.8 66 18.9 79 79 SSE 5 7 29.98 1015 10 16 0.00 0.00
2:07 pm 14:07 Cloudy 73 22.8 66 18.9 79 79 VRB 3 6 29.97 1015 10 16 0.00 0.00
2:24 pm 14:24 Cloudy 73 22.8 66 18.9 79 79 Calm 29.98 1015 10 16 0.00 0.00
2:52 pm 14:52 Cloudy with Light Rain 73 22.8 66 18.9 79 79 S 6 9 29.97 1015 10 16 0.00 0.00
3:19 pm 15:19 Cloudy with Light Rain 74 23.3 67 19.4 79 79 SSE 8 13 29.95 1014 10 16 0.01 0.25
3:52 pm 15:52 Mostly Cloudy 76 24.4 67 19.4 74 74 S 7 11 29.95 1014 10 16 0.01 0.25
4:52 pm 16:52 Mostly Cloudy 78 25.6 66 18.9 67 67 S 6 9 29.91 1013 10 16 0.00 0.00
5:52 pm 17:52 Mostly Cloudy 79 26.1 66 18.9 65 65 SE 3 6 29.91 1013 10 16 0.00 0.00
6:06 pm 18:06 Mostly Cloudy 79 26.1 67 19.4 67 67 Calm 29.90 1012 10 16 0.00 0.00
6:52 pm 18:52 Cloudy 79 26.1 67 19.4 67 67 N 6 9 29.91 1013 10 16 0.00 0.00
7:52 pm 19:52 Cloudy 77 25 67 19.4 71 71 E 8 13 29.92 1013 10 16 0.00 0.00
8:52 pm 20:52 Mostly Cloudy 76 24.4 67 19.4 74 74 E 7 11 29.92 1013 10 16 0.00 0.00
9:52 pm 21:52 Cloudy with Strong Thunderstorms 72 22.2 67 19.4 84 84 WSW 16 26 29.94 1014 3 5 0.00 0.00
9:59 pm 21:59 Cloudy with Strong Thunderstorms 71 21.7 66 18.9 84 84 SSW 9 15 29.94 1014 2 3 0.06 1.52
10:06 pm 22:06 Cloudy with Strong Thunderstorms 68 20 64 17.8 87 87 SSE 10 17 29.93 1013 2 3 0.13 3.30
10:14 pm 22:14 Cloudy with Light Rain 68 20 64 17.8 87 87 SSE 8 13 29.93 1013 7 11 0.16 4.06
10:41 pm 22:41 Cloudy with Light Rain 70 21.1 64 17.8 82 82 E 5 7 29.88 1012 10 16 0.18 4.57
10:52 pm 22:52 Cloudy with Light Rain 70 21.1 64 17.8 82 82 E 6 9 29.88 1012 10 16 0.18 4.57
11:52 pm 23:52 Cloudy with Light Rain 70 21.1 66 18.9 87 87 E 8 13 29.88 1012 10 16 0.00 0.00

Powered by AerisWeather